SL-19 R/B

Satellite information

Favourite Embed

Satellite Type and Status

ROCKET BODYIN ORBIT

Key statistics

Satellite SL-19 R/B at a glance.

Uptime

8030

Days in orbit

Revolutions

≈ 14.0

Per day

Orbit

SSO

Sun Synchronous Orbit

Inclination

99.6

Latest

Satellite identification and parameters

Extended collection of information and parameters for SL-19 R/B.

Object identification

Identified? True

Debris? False

Object name: SL-19 R/B

International designator: 2003-050B

Object number (NORAD): 28061

Object ID (CCSDS): 28061

Country: COMMONWEALTH OF INDEPENDENT STATES (CIS)

Current information (Y/N): Y

RCS size: LARGE

Orbital parameters

Period: 103.025 minutes

Inclination: 99.5717 deg

SMA: 7279.835 km

Apoapsis: 1008.579 km

Periapsis: 794.822 km

RAAN: 319.322 deg

Eccentricy: 0.0146814

Argument of periapsis: 114.8551 deg

Mean anomaly: 246.7956 deg

Mean motion: 13.97720767 rev/day

Mean motion (dot): 0.00000151 rev/day2

B* drag term: 0.00012767245 1/REarth

Two-line elements (TLE)

Creation date: Oct. 24, 2025, 2:48 a.m.

Reference frame: TEME

Reference center: EARTH

Epoch: Oct. 23, 2025, 9:53 p.m. UTC

TLE line 0: 0 SL-19 R/B

TLE line 1: 1 28061U 03050B 25296.91183863 .00000151 00000-0 12767-3 0 9991

TLE line 2: 2 28061 99.5717 319.3220 0146814 114.8551 246.7956 13.97720767121312

Live tracking on map

Real-time ground track for satellite SL-19 R/B.

In-orbit conjunctions

A list of the most updated potential collisions computed for object SL-19 R/B.

Target Orbit TCA Probability of collision Miss distance Type
THORAD AGENA D DEB SSO 2025-10-23 16:14:50 0.0001646478 285.0 (m) DEBRIS
FENGYUN 1C DEB SSO 2025-06-29 09:30:04 0.000308012 326.0 (m) DEBRIS
COSMOS 1275 DEB LEO 2024-09-30 07:57:11 0.0001785492 174.0 (m) DEBRIS
DMSP 5D-2 F13 DEB SSO 2024-05-29 10:42:32 0.0005299754 142.0 (m) DEBRIS

Associated space launch

SERVIS-1, or Space Environment Reliability Verification Integrated System 1, is a Japanese satellite designed for testing the performance of commercial off-the-shelf products in the space environment.

SL-19 R/B was lifted into orbit during the mission ‘Rokot / Briz-KM | SERVIS-1’, on board a Rokot/Briz-KM space rocket.

The launch took place on Oct. 30, 2003, 1:43 p.m. from 133/3 (133L).

For more information about the launch, click the button.

Launch to space Rokot / Briz-KM | SERVIS-1
Rokot / Briz-KM | SERVIS-1

Agency: N/A

Status: Launch Successful

Launch date: Oct. 30, 2003, 1:43 p.m. UTC

Rocket: Rokot/Briz-KM

Launch pad: 133/3 (133L)

Location: Plesetsk Cosmodrome, Russian Federation

...

Latest news about this satellite

There are no fresh news available about this satellite. Check back as we update our databases every day.


Newsletter sign-up

Weekly statistics, charts and insights to help you stay on top of the space industry.